| time (UTC) | temp C | wind direction | speed KPH | gust KPH | rain 1hr cm | rain 24hr cm | rain mn cm | humidity % | barometer mb |
| 20260510094956 | 20 | 76 | 0.0 | 0.0 | 0.00 | 0.00 | 0.00 | 95 | 1027.5 |
| 20260510094451 | 20 | 76 | 0.0 | 0.0 | 0.00 | 0.00 | 0.00 | 95 | 1027.5 |
| 20260510093947 | 20 | 65 | 0.0 | 0.0 | 0.00 | 0.00 | 0.00 | 95 | 1027.4 |
| 20260510093442 | 20 | 68 | 0.0 | 0.0 | 0.00 | 0.00 | 0.00 | 95 | 1027.3 |
| 20260510092939 | 20 | 68 | 0.0 | 0.0 | 0.00 | 0.00 | 0.00 | 95 | 1027.4 |
| 20260510092437 | 20 | 68 | 0.0 | 1.6 | 0.00 | 0.00 | 0.00 | 95 | 1027.6 |
| 20260510091936 | 20 | 53 | 0.0 | 1.6 | 0.00 | 0.00 | 0.00 | 95 | 1027.3 |
| 20260510091434 | 20 | 78 | 0.0 | 0.0 | 0.00 | 0.00 | 0.00 | 95 | 1027.4 |
| 20260510090930 | 20 | 78 | 0.0 | 0.0 | 0.00 | 0.00 | 0.00 | 95 | 1027.4 |
| 20260510090427 | 20 | 78 | 0.0 | 0.0 | 0.00 | 0.00 | 0.00 | 95 | 1027.2 |
| 20260510085922 | 20 | 78 | 0.0 | 0.0 | 0.00 | 0.00 | 0.00 | 95 | 1027.2 |
| 20260510085418 | 20 | 78 | 0.0 | 0.0 | 0.00 | 0.00 | 0.00 | 94 | 1027.2 |
| 20260510084913 | 20 | 78 | 0.0 | 0.0 | 0.00 | 0.00 | 0.00 | 94 | 1027.1 |
| 20260510084411 | 20 | 78 | 0.0 | 0.0 | 0.00 | 0.00 | 0.00 | 94 | 1027.0 |
| 20260510083907 | 20 | 81 | 0.0 | 1.6 | 0.00 | 0.00 | 0.00 | 94 | 1027.1 |
| 20260510083404 | 20 | 67 | 0.0 | 0.0 | 0.00 | 0.00 | 0.00 | 94 | 1027.2 |
| 20260510082859 | 20 | 57 | 0.0 | 0.0 | 0.00 | 0.00 | 0.00 | 94 | 1027.1 |
| 20260510082357 | 20 | 57 | 0.0 | 1.6 | 0.00 | 0.00 | 0.00 | 94 | 1027.0 |
| 20260510081855 | 20 | 68 | 0.0 | 0.0 | 0.00 | 0.00 | 0.00 | 94 | 1027.1 |
| 20260510081351 | 20 | 68 | 0.0 | 0.0 | 0.00 | 0.00 | 0.00 | 94 | 1027.1 |
| 20260510080849 | 20 | 68 | 0.0 | 0.0 | 0.00 | 0.00 | 0.00 | 94 | 1027.2 |
| 20260510080342 | 20 | 66 | 0.0 | 0.0 | 0.00 | 0.00 | 0.00 | 93 | 1027.2 |
| 20260510075840 | 20 | 66 | 0.0 | 0.0 | 0.00 | 0.00 | 0.00 | 94 | 1027.2 |
| 20260510075337 | 20 | 51 | 0.0 | 0.0 | 0.00 | 0.00 | 0.00 | 93 | 1027.3 |
| 20260510074834 | 20 | 51 | 0.0 | 0.0 | 0.00 | 0.00 | 0.00 | 93 | 1027.2 |
| 20260510074331 | 20 | 51 | 0.0 | 1.6 | 0.00 | 0.00 | 0.00 | 93 | 1027.0 |
| 20260510073827 | 20 | 59 | 0.0 | 0.0 | 0.00 | 0.00 | 0.00 | 93 | 1027.2 |
| 20260510073323 | 21 | 59 | 0.0 | 0.0 | 0.00 | 0.00 | 0.00 | 93 | 1027.1 |
| 20260510072819 | 21 | 49 | 0.0 | 0.0 | 0.00 | 0.00 | 0.00 | 93 | 1027.1 |
| 20260510072316 | 21 | 49 | 0.0 | 1.6 | 0.00 | 0.00 | 0.00 | 93 | 1027.0 |
| 20260510071813 | 21 | 50 | 0.0 | 1.6 | 0.00 | 0.00 | 0.00 | 93 | 1027.1 |
| 20260510071309 | 21 | 46 | 0.0 | 1.6 | 0.00 | 0.00 | 0.00 | 93 | 1027.2 |
| 20260510070808 | 21 | 44 | 0.0 | 1.6 | 0.00 | 0.00 | 0.00 | 93 | 1027.1 |
| 20260510070305 | 21 | 70 | 0.0 | 1.6 | 0.00 | 0.00 | 0.00 | 93 | 1027.2 |
| 20260510065804 | 21 | 53 | 0.0 | 0.0 | 0.00 | 0.00 | 0.00 | 93 | 1027.2 |
| 20260510065301 | 21 | 53 | 0.0 | 0.0 | 0.00 | 0.00 | 0.00 | 93 | 1027.1 |
| 20260510064758 | 21 | 53 | 0.0 | 0.0 | 0.00 | 0.00 | 0.00 | 93 | 1027.1 |
| 20260510064256 | 21 | 53 | 0.0 | 0.0 | 0.00 | 0.00 | 0.00 | 92 | 1027.1 |
| 20260510063751 | 21 | 53 | 0.0 | 0.0 | 0.00 | 0.00 | 0.00 | 92 | 1027.1 |
| 20260510063248 | 21 | 53 | 0.0 | 0.0 | 0.00 | 0.00 | 0.00 | 92 | 1026.9 |
| 20260510062745 | 21 | 53 | 0.0 | 0.0 | 0.00 | 0.00 | 0.00 | 92 | 1026.9 |
| 20260510062240 | 21 | 53 | 0.0 | 0.0 | 0.00 | 0.00 | 0.00 | 91 | 1026.9 |
| 20260510061736 | 21 | 53 | 0.0 | 0.0 | 0.00 | 0.00 | 0.00 | 90 | 1027.0 |
| 20260510061233 | 21 | 53 | 0.0 | 0.0 | 0.00 | 0.00 | 0.00 | 90 | 1027.0 |
| 20260510060729 | 21 | 53 | 0.0 | 0.0 | 0.00 | 0.00 | 0.00 | 90 | 1027.0 |
| 20260510060226 | 22 | 53 | 0.0 | 0.0 | 0.00 | 0.00 | 0.00 | 89 | 1027.1 |
| 20260510055723 | 22 | 53 | 0.0 | 0.0 | 0.00 | 0.00 | 0.00 | 89 | 1026.9 |
| 20260510055222 | 22 | 52 | 0.0 | 0.0 | 0.00 | 0.00 | 0.00 | 88 | 1027.0 |
| 20260510054721 | 22 | 52 | 0.0 | 0.0 | 0.00 | 0.00 | 0.00 | 88 | 1027.0 |
| 20260510054218 | 22 | 52 | 0.0 | 0.0 | 0.00 | 0.00 | 0.00 | 87 | 1027.1 |
| 20260510053717 | 22 | 52 | 0.0 | 0.0 | 0.00 | 0.00 | 0.00 | 86 | 1027.0 |
| 20260510053214 | 22 | 52 | 0.0 | 0.0 | 0.00 | 0.00 | 0.00 | 86 | 1027.0 |
| 20260510052709 | 22 | 52 | 0.0 | 0.0 | 0.00 | 0.00 | 0.00 | 86 | 1027.0 |
| 20260510052206 | 22 | 57 | 0.0 | 0.0 | 0.00 | 0.00 | 0.00 | 86 | 1027.0 |
| 20260510051701 | 22 | 57 | 0.0 | 0.0 | 0.00 | 0.00 | 0.00 | 87 | 1027.1 |
| 20260510051158 | 22 | 66 | 0.0 | 0.0 | 0.00 | 0.00 | 0.00 | 86 | 1026.9 |
| 20260510050656 | 22 | 66 | 0.0 | 0.0 | 0.00 | 0.00 | 0.00 | 85 | 1027.0 |
| 20260510050153 | 23 | 66 | 0.0 | 0.0 | 0.00 | 0.00 | 0.00 | 85 | 1027.0 |
| 20260510045649 | 23 | 67 | 0.0 | 0.0 | 0.00 | 0.56 | 0.56 | 85 | 1026.9 |
| 20260510045146 | 23 | 67 | 0.0 | 0.0 | 0.00 | 0.56 | 0.56 | 84 | 1026.8 |
| 20260510044642 | 23 | 67 | 0.0 | 0.0 | 0.00 | 0.56 | 0.56 | 84 | 1026.7 |
| 20260510044140 | 23 | 75 | 0.0 | 0.0 | 0.00 | 0.56 | 0.56 | 84 | 1026.8 |
| 20260510043635 | 23 | 58 | 0.0 | 1.6 | 0.00 | 0.56 | 0.56 | 85 | 1026.7 |
| 20260510043132 | 22 | 31 | 1.6 | 1.6 | 0.00 | 0.56 | 0.56 | 86 | 1026.5 |
| 20260510042630 | 22 | 57 | 0.0 | 0.0 | 0.00 | 0.56 | 0.56 | 87 | 1026.7 |
| 20260510042125 | 22 | 56 | 0.0 | 0.0 | 0.00 | 0.56 | 0.56 | 87 | 1026.6 |
| 20260510041623 | 22 | 73 | 0.0 | 0.0 | 0.00 | 0.56 | 0.56 | 87 | 1026.6 |
| 20260510041120 | 22 | 80 | 0.0 | 0.0 | 0.00 | 0.56 | 0.56 | 87 | 1026.6 |
| 20260510040617 | 23 | 68 | 0.0 | 0.0 | 0.00 | 0.56 | 0.56 | 86 | 1026.3 |
| 20260510040113 | 23 | 68 | 0.0 | 0.0 | 0.00 | 0.56 | 0.56 | 86 | 1026.4 |
| 20260510035609 | 23 | 68 | 0.0 | 0.0 | 0.00 | 0.56 | 0.56 | 85 | 1026.4 |
| 20260510035109 | 23 | 69 | 0.0 | 0.0 | 0.00 | 0.56 | 0.56 | 84 | 1026.4 |
| 20260510034607 | 23 | 69 | 0.0 | 0.0 | 0.00 | 0.56 | 0.56 | 84 | 1026.3 |
| 20260510034104 | 23 | 69 | 0.0 | 0.0 | 0.00 | 0.56 | 0.56 | 83 | 1026.2 |
| 20260510033600 | 23 | 69 | 0.0 | 0.0 | 0.00 | 0.56 | 0.56 | 83 | 1026.2 |
| 20260510033058 | 23 | 69 | 0.0 | 0.0 | 0.00 | 0.56 | 0.56 | 82 | 1026.1 |
| 20260510032554 | 24 | 57 | 0.0 | 0.0 | 0.00 | 0.56 | 0.56 | 81 | 1026.1 |
| 20260510032050 | 24 | 57 | 0.0 | 0.0 | 0.00 | 0.56 | 0.56 | 79 | 1026.1 |
| 20260510031550 | 24 | 58 | 0.0 | 1.6 | 0.00 | 0.56 | 0.56 | 79 | 1026.1 |
| 20260510031046 | 24 | 60 | 0.0 | 0.0 | 0.00 | 0.56 | 0.56 | 78 | 1026.0 |
| 20260510030542 | 24 | 60 | 0.0 | 0.0 | 0.00 | 0.56 | 0.56 | 78 | 1025.9 |
| 20260510030039 | 24 | 58 | 0.0 | 0.0 | 0.00 | 0.56 | 0.56 | 78 | 1025.9 |
| 20260510025536 | 25 | 58 | 0.0 | 0.0 | 0.00 | 0.56 | 0.56 | 78 | 1025.8 |
| 20260510025034 | 24 | 46 | 1.6 | 1.6 | 0.00 | 0.56 | 0.56 | 79 | 1025.9 |
| 20260510024530 | 24 | 60 | 0.0 | 0.0 | 0.00 | 0.56 | 0.56 | 78 | 1025.7 |
| 20260510024026 | 25 | 60 | 0.0 | 0.0 | 0.00 | 0.56 | 0.56 | 78 | 1025.6 |
| 20260510023522 | 25 | 60 | 0.0 | 0.0 | 0.00 | 0.56 | 0.56 | 77 | 1025.5 |
| 20260510023020 | 25 | 60 | 0.0 | 0.0 | 0.00 | 0.56 | 0.56 | 77 | 1025.6 |
| 20260510022519 | 25 | 64 | 0.0 | 0.0 | 0.00 | 0.56 | 0.56 | 76 | 1025.5 |
| 20260510022014 | 25 | 64 | 0.0 | 0.0 | 0.00 | 0.56 | 0.56 | 75 | 1025.3 |
| 20260510021511 | 25 | 62 | 0.0 | 0.0 | 0.00 | 0.56 | 0.56 | 74 | 1025.5 |
| 20260510021008 | 25 | 62 | 0.0 | 0.0 | 0.00 | 0.56 | 0.56 | 74 | 1025.4 |
| 20260510020502 | 26 | 64 | 0.0 | 0.0 | 0.00 | 0.56 | 0.56 | 73 | 1025.2 |
| 20260510015958 | 26 | 70 | 0.0 | 0.0 | 0.00 | 0.56 | 0.56 | 72 | 1025.3 |
| 20260510015454 | 26 | 72 | 0.0 | 1.6 | 0.00 | 0.56 | 0.56 | 72 | 1025.2 |
| 20260510014949 | 26 | 72 | 0.0 | 0.0 | 0.00 | 0.56 | 0.56 | 71 | 1025.2 |
| 20260510014447 | 26 | 73 | 0.0 | 1.6 | 0.00 | 0.56 | 0.56 | 71 | 1025.1 |
| 20260510013944 | 26 | 104 | 1.6 | 3.2 | 0.00 | 0.56 | 0.56 | 70 | 1025.2 |
| 20260510013438 | 26 | 70 | 0.0 | 1.6 | 0.00 | 0.56 | 0.56 | 70 | 1025.0 |
| 20260510012934 | 26 | 56 | 1.6 | 1.6 | 0.00 | 0.56 | 0.56 | 70 | 1025.0 |
| 20260510012429 | 27 | 77 | 1.6 | 4.8 | 0.00 | 0.56 | 0.56 | 69 | 1025.0 |
| 20260510011924 | 27 | 43 | 1.6 | 3.2 | 0.00 | 0.56 | 0.56 | 69 | 1025.1 |
| 20260510011419 | 27 | 117 | 1.6 | 3.2 | 0.00 | 0.56 | 0.56 | 70 | 1024.9 |
| 20260510010915 | 27 | 78 | 1.6 | 1.6 | 0.00 | 0.56 | 0.56 | 69 | 1024.9 |
| 20260510010413 | 27 | 67 | 1.6 | 1.6 | 0.00 | 0.56 | 0.56 | 69 | 1024.9 |
| 20260510005910 | 27 | 81 | 0.0 | 1.6 | 0.00 | 0.56 | 0.56 | 69 | 1024.7 |
| 20260510005406 | 27 | 70 | 1.6 | 1.6 | 0.00 | 0.56 | 0.56 | 69 | 1024.7 |
| 20260510004903 | 27 | 69 | 1.6 | 1.6 | 0.00 | 0.56 | 0.56 | 69 | 1024.6 |
| 20260510004401 | 27 | 47 | 1.6 | 3.2 | 0.00 | 0.56 | 0.56 | 69 | 1024.4 |
| 20260510003858 | 27 | 82 | 1.6 | 1.6 | 0.00 | 0.56 | 0.56 | 68 | 1024.4 |
| 20260510003355 | 27 | 58 | 0.0 | 1.6 | 0.00 | 0.56 | 0.56 | 68 | 1024.3 |
| 20260510002854 | 27 | 59 | 1.6 | 1.6 | 0.00 | 0.56 | 0.56 | 67 | 1024.1 |
| 20260510002352 | 27 | 60 | 0.0 | 0.0 | 0.00 | 0.56 | 0.56 | 68 | 1024.3 |
| 20260510001848 | 27 | 64 | 0.0 | 1.6 | 0.00 | 0.56 | 0.56 | 68 | 1024.4 |
| 20260510001346 | 27 | 69 | 1.6 | 1.6 | 0.00 | 0.56 | 0.56 | 67 | 1024.3 |
| 20260510000842 | 27 | 61 | 1.6 | 3.2 | 0.00 | 0.56 | 0.56 | 66 | 1024.3 |
| 20260510000341 | 27 | 79 | 1.6 | 1.6 | 0.00 | 0.56 | 0.56 | 64 | 1024.1 |
| 20260509235836 | 27 | 50 | 0.0 | 1.6 | 0.00 | 0.56 | 0.56 | 63 | 1024.3 |
| 20260509235333 | 27 | 49 | 1.6 | 1.6 | 0.00 | 0.56 | 0.56 | 64 | 1024.0 |
| 20260509234828 | 26 | 74 | 1.6 | 3.2 | 0.00 | 0.56 | 0.56 | 65 | 1023.9 |
| 20260509234326 | 26 | 52 | 1.6 | 3.2 | 0.00 | 0.56 | 0.56 | 69 | 1024.0 |
| 20260509233824 | 26 | 66 | 0.0 | 1.6 | 0.00 | 0.56 | 0.56 | 70 | 1024.0 |
| 20260509233321 | 26 | 56 | 0.0 | 0.0 | 0.00 | 0.56 | 0.56 | 68 | 1024.0 |
| 20260509232816 | 26 | 298 | 1.6 | 3.2 | 0.00 | 0.56 | 0.56 | 67 | 1023.9 |
| 20260509232314 | 26 | 72 | 0.0 | 0.0 | 0.00 | 0.56 | 0.56 | 67 | 1024.0 |
| 20260509231810 | 26 | 116 | 1.6 | 1.6 | 0.00 | 0.56 | 0.56 | 66 | 1023.9 |
| 20260509231308 | 26 | 351 | 0.0 | 1.6 | 0.00 | 0.56 | 0.56 | 63 | 1024.0 |
| 20260509230805 | 26 | 63 | 0.0 | 1.6 | 0.00 | 0.56 | 0.56 | 60 | 1024.0 |
| 20260509230302 | 25 | 66 | 0.0 | 1.6 | 0.00 | 0.56 | 0.56 | 68 | 1023.9 |
| 20260509225757 | 25 | 63 | 3.2 | 3.2 | 0.00 | 0.56 | 0.56 | 65 | 1023.7 |
| 20260509225254 | 24 | 126 | 3.2 | 6.4 | 0.00 | 0.56 | 0.56 | 71 | 1023.7 |
| 20260509224749 | 24 | 58 | 0.0 | 3.2 | 0.00 | 0.56 | 0.56 | 65 | 1023.8 |
| 20260509224247 | 24 | 260 | 4.8 | 9.7 | 0.00 | 0.56 | 0.56 | 66 | 1023.7 |
| 20260509223743 | 24 | 274 | 4.8 | 11.3 | 0.00 | 0.56 | 0.56 | 67 | 1023.5 |
| 20260509223240 | 25 | 294 | 4.8 | 6.4 | 0.18 | 0.56 | 0.56 | 65 | 1023.3 |
| 20260509222737 | 24 | 264 | 8.0 | 9.7 | 0.61 | 0.56 | 0.56 | 72 | 1023.8 |
| 20260509222232 | 26 | 86 | 3.2 | 9.7 | 0.61 | 0.53 | 0.53 | 73 | 1024.3 |
| 20260509221728 | 28 | 235 | 3.2 | 6.4 | 0.00 | 0.43 | 0.43 | 62 | 1024.5 |
| 20260509221225 | 29 | 2 | 6.4 | 9.7 | 0.00 | 0.43 | 0.43 | 56 | 1024.3 |
| 20260509220720 | 30 | 15 | 4.8 | 12.9 | 0.00 | 0.43 | 0.43 | 54 | 1023.7 |
| 20260509220218 | 33 | 59 | 8.0 | 16.1 | 0.00 | 0.43 | 0.43 | 43 | 1024.0 |
| 20260509215713 | 34 | 106 | 3.2 | 3.2 | 0.00 | 0.43 | 0.43 | 44 | 1024.0 |
| 20260509215210 | 35 | 81 | 1.6 | 3.2 | 0.00 | 0.43 | 0.43 | 43 | 1023.8 |
| 20260509214707 | 34 | 36 | 0.0 | 1.6 | 0.00 | 0.43 | 0.43 | 46 | 1023.7 |
| 20260509214204 | 33 | 74 | 0.0 | 1.6 | 0.00 | 0.43 | 0.43 | 47 | 1023.7 |
| 20260509213701 | 33 | 80 | 0.0 | 3.2 | 0.00 | 0.43 | 0.43 | 49 | 1023.9 |
| 20260509213156 | 32 | 181 | 1.6 | 4.8 | 0.00 | 0.43 | 0.43 | 51 | 1023.9 |
| 20260509212654 | 31 | 117 | 1.6 | 1.6 | 0.00 | 0.43 | 0.43 | 52 | 1023.9 |
| 20260509212151 | 31 | 110 | 4.8 | 6.4 | 0.00 | 0.43 | 0.43 | 52 | 1023.9 |
| 20260509211646 | 32 | 79 | 3.2 | 4.8 | 0.00 | 0.43 | 0.43 | 52 | 1023.9 |
| 20260509211143 | 32 | 18 | 3.2 | 3.2 | 0.00 | 0.43 | 0.43 | 50 | 1023.9 |
| 20260509210641 | 32 | 333 | 6.4 | 6.4 | 0.00 | 0.43 | 0.43 | 49 | 1024.1 |
| 20260509210138 | 35 | 68 | 9.7 | 11.3 | 0.00 | 0.43 | 0.43 | 45 | 1023.9 |
| 20260509205633 | 35 | 46 | 0.0 | 3.2 | 0.00 | 0.43 | 0.43 | 43 | 1024.1 |
| 20260509205133 | 37 | 218 | 3.2 | 4.8 | 0.00 | 0.43 | 0.43 | 39 | 1024.3 |
| 20260509204629 | 37 | 75 | 1.6 | 3.2 | 0.00 | 0.43 | 0.43 | 38 | 1024.3 |
| 20260509204125 | 35 | 358 | 1.6 | 3.2 | 0.00 | 0.43 | 0.43 | 41 | 1024.3 |
| 20260509203621 | 35 | 69 | 0.0 | 1.6 | 0.00 | 0.43 | 0.43 | 44 | 1024.4 |
| 20260509203120 | 35 | 115 | 3.2 | 4.8 | 0.00 | 0.43 | 0.43 | 44 | 1024.7 |
| 20260509202620 | 35 | 149 | 1.6 | 4.8 | 0.00 | 0.43 | 0.43 | 44 | 1024.5 |
| 20260509202115 | 35 | 61 | 1.6 | 4.8 | 0.00 | 0.43 | 0.43 | 45 | 1024.6 |
| 20260509201616 | 36 | 132 | 1.6 | 3.2 | 0.00 | 0.43 | 0.43 | 45 | 1024.8 |
| 20260509201114 | 36 | 359 | 1.6 | 1.6 | 0.00 | 0.43 | 0.43 | 42 | 1024.6 |
| 20260509200609 | 35 | 105 | 3.2 | 6.4 | 0.00 | 0.43 | 0.43 | 44 | 1024.7 |
| 20260509200105 | 36 | 76 | 1.6 | 3.2 | 0.00 | 0.43 | 0.43 | 42 | 1024.9 |
| 20260509195601 | 35 | 180 | 1.6 | 3.2 | 0.00 | 0.43 | 0.43 | 45 | 1024.9 |
| 20260509195055 | 34 | 75 | 3.2 | 4.8 | 0.00 | 0.43 | 0.43 | 47 | 1024.8 |
| 20260509194555 | 35 | 260 | 4.8 | 6.4 | 0.00 | 0.43 | 0.43 | 47 | 1025.0 |
| 20260509194053 | 35 | 179 | 3.2 | 3.2 | 0.00 | 0.43 | 0.43 | 47 | 1025.0 |
| 20260509193548 | 36 | 85 | 1.6 | 3.2 | 0.00 | 0.43 | 0.43 | 45 | 1025.2 |
| 20260509193044 | 36 | 34 | 3.2 | 3.2 | 0.00 | 0.43 | 0.43 | 46 | 1025.3 |
| 20260509192541 | 37 | 220 | 1.6 | 3.2 | 0.00 | 0.43 | 0.43 | 42 | 1025.4 |
| 20260509192036 | 36 | 86 | 3.2 | 3.2 | 0.00 | 0.43 | 0.43 | 42 | 1025.5 |
| 20260509191531 | 35 | 93 | 0.0 | 3.2 | 0.00 | 0.43 | 0.43 | 46 | 1025.6 |
| 20260509191027 | 35 | 199 | 1.6 | 3.2 | 0.00 | 0.43 | 0.43 | 47 | 1025.7 |
| 20260509190524 | 36 | 114 | 3.2 | 3.2 | 0.00 | 0.43 | 0.43 | 48 | 1025.7 |
| 20260509190022 | 35 | 46 | 1.6 | 4.8 | 0.00 | 0.43 | 0.43 | 49 | 1025.8 |
| 20260509185519 | 36 | 131 | 0.0 | 4.8 | 0.00 | 0.43 | 0.43 | 47 | 1025.9 |
| 20260509185015 | 35 | 77 | 1.6 | 3.2 | 0.00 | 0.43 | 0.43 | 50 | 1026.0 |
| 20260509184514 | 34 | 111 | 0.0 | 3.2 | 0.00 | 0.43 | 0.43 | 51 | 1025.9 |
| 20260509184010 | 32 | 70 | 0.0 | 3.2 | 0.00 | 0.43 | 0.43 | 54 | 1026.1 |
| 20260509183505 | 31 | 242 | 3.2 | 3.2 | 0.00 | 0.43 | 0.43 | 56 | 1026.0 |
| 20260509183001 | 31 | 90 | 0.0 | 3.2 | 0.00 | 0.43 | 0.43 | 60 | 1026.1 |
| 20260509182458 | 31 | 84 | 1.6 | 4.8 | 0.00 | 0.43 | 0.43 | 58 | 1026.2 |
| 20260509181955 | 33 | 196 | 6.4 | 9.7 | 0.00 | 0.43 | 0.43 | 55 | 1026.1 |
| 20260509181453 | 32 | 114 | 1.6 | 1.6 | 0.00 | 0.43 | 0.43 | 55 | 1026.2 |
| 20260509180950 | 30 | 164 | 3.2 | 4.8 | 0.00 | 0.43 | 0.43 | 60 | 1026.2 |
| 20260509180445 | 31 | 305 | 4.8 | 9.7 | 0.00 | 0.43 | 0.43 | 60 | 1026.4 |
| 20260509175943 | 32 | 82 | 1.6 | 4.8 | 0.00 | 0.43 | 0.43 | 58 | 1026.5 |
| 20260509175439 | 31 | 265 | 3.2 | 3.2 | 0.00 | 0.43 | 0.43 | 59 | 1026.4 |
| 20260509174935 | 31 | 248 | 3.2 | 3.2 | 0.00 | 0.43 | 0.43 | 61 | 1026.4 |
| 20260509174431 | 31 | 80 | 1.6 | 6.4 | 0.00 | 0.43 | 0.43 | 61 | 1026.7 |
| 20260509173927 | 31 | 73 | 0.0 | 1.6 | 0.00 | 0.43 | 0.43 | 61 | 1026.5 |
| 20260509173426 | 30 | 80 | 1.6 | 1.6 | 0.00 | 0.43 | 0.43 | 62 | 1026.6 |
| 20260509172924 | 30 | 78 | 1.6 | 4.8 | 0.00 | 0.43 | 0.43 | 64 | 1026.9 |
| 20260509172421 | 32 | 264 | 6.4 | 6.4 | 0.00 | 0.43 | 0.43 | 58 | 1026.7 |
| 20260509171916 | 31 | 141 | 3.2 | 3.2 | 0.00 | 0.43 | 0.43 | 61 | 1026.8 |
| 20260509171412 | 30 | 88 | 1.6 | 3.2 | 0.00 | 0.43 | 0.43 | 64 | 1026.9 |
| 20260509170909 | 30 | 145 | 3.2 | 4.8 | 0.00 | 0.43 | 0.43 | 63 | 1026.8 |
| 20260509170404 | 30 | 252 | 1.6 | 3.2 | 0.00 | 0.43 | 0.43 | 63 | 1026.8 |
| 20260509165900 | 32 | 264 | 4.8 | 4.8 | 0.00 | 0.43 | 0.43 | 59 | 1027.0 |
| 20260509165354 | 31 | 158 | 0.0 | 1.6 | 0.00 | 0.43 | 0.43 | 60 | 1026.9 |
| 20260509164851 | 31 | 81 | 0.0 | 1.6 | 0.00 | 0.43 | 0.43 | 61 | 1027.0 |
| 20260509164346 | 30 | 129 | 1.6 | 3.2 | 0.00 | 0.43 | 0.43 | 63 | 1027.1 |
| 20260509163843 | 28 | 82 | 1.6 | 1.6 | 0.00 | 0.43 | 0.43 | 65 | 1027.2 |
| 20260509163340 | 27 | 130 | 0.0 | 1.6 | 0.00 | 0.43 | 0.43 | 71 | 1027.1 |
| 20260509162839 | 27 | 113 | 1.6 | 1.6 | 0.00 | 0.43 | 0.43 | 76 | 1027.0 |
| 20260509162338 | 26 | 78 | 0.0 | 1.6 | 0.00 | 0.43 | 0.43 | 80 | 1026.9 |
| 20260509161834 | 26 | 78 | 0.0 | 4.8 | 0.00 | 0.43 | 0.43 | 83 | 1027.0 |
| 20260509161330 | 25 | 75 | 0.0 | 1.6 | 0.00 | 0.43 | 0.43 | 88 | 1027.0 |
| 20260509160826 | 25 | 279 | 4.8 | 6.4 | 0.00 | 0.43 | 0.43 | 86 | 1026.9 |
| 20260509160322 | 25 | 246 | 3.2 | 9.7 | 0.00 | 0.43 | 0.43 | 86 | 1026.8 |
| 20260509155818 | 25 | 226 | 4.8 | 4.8 | 0.00 | 0.43 | 0.43 | 89 | 1026.9 |
| 20260509155314 | 24 | 58 | 3.2 | 11.3 | 0.00 | 0.43 | 0.43 | 90 | 1026.9 |
| 20260509154810 | 25 | 191 | 4.8 | 9.7 | 0.00 | 0.43 | 0.43 | 90 | 1027.0 |
| 20260509154307 | 24 | 250 | 4.8 | 4.8 | 0.00 | 0.43 | 0.43 | 92 | 1026.5 |
| 20260509153804 | 23 | 51 | 3.2 | 3.2 | 0.00 | 0.43 | 0.43 | 94 | 1026.6 |
| 20260509153300 | 23 | 314 | 3.2 | 4.8 | 0.00 | 0.43 | 0.43 | 94 | 1026.7 |
| 20260509152757 | 23 | 272 | 4.8 | 6.4 | 0.00 | 0.43 | 0.43 | 94 | 1026.8 |
| 20260509152253 | 23 | 275 | 6.4 | 11.3 | 0.00 | 0.43 | 0.43 | 93 | 1027.1 |
| 20260509151751 | 24 | 349 | 1.6 | 3.2 | 0.00 | 0.43 | 0.43 | 95 | 1027.1 |
| 20260509151247 | 23 | 104 | 1.6 | 1.6 | 0.00 | 0.43 | 0.43 | 96 | 1027.3 |
| 20260509150746 | 23 | 91 | 0.0 | 0.0 | 0.00 | 0.43 | 0.43 | 96 | 1027.2 |
| 20260509150244 | 23 | 311 | 1.6 | 3.2 | 0.00 | 0.43 | 0.43 | 96 | 1027.4 |
| 20260509145740 | 23 | 72 | 0.0 | 1.6 | 0.00 | 0.43 | 0.43 | 96 | 1027.4 |
| 20260509145240 | 23 | 68 | 0.0 | 0.0 | 0.79 | 0.43 | 0.43 | 96 | 1027.6 |
| 20260509144737 | 23 | 65 | 0.0 | 0.0 | 1.80 | 0.43 | 0.43 | 96 | 1027.6 |
| 20260509144234 | 22 | 74 | 0.0 | 1.6 | 1.50 | 0.25 | 0.25 | 96 | 1027.7 |
| 20260509143731 | 22 | 78 | 0.0 | 0.0 | 0.48 | 0.08 | 0.08 | 96 | 1027.6 |
| 20260509143228 | 22 | 68 | 0.0 | 0.0 | 0.00 | 0.00 | 0.00 | 96 | 1027.6 |
| 20260509142724 | 22 | 64 | 0.0 | 0.0 | 0.00 | 0.00 | 0.00 | 96 | 1027.7 |
| 20260509142220 | 22 | 73 | 0.0 | 0.0 | 0.00 | 0.00 | 0.00 | 96 | 1027.6 |
| 20260509141716 | 22 | 63 | 0.0 | 0.0 | 0.00 | 0.00 | 0.00 | 96 | 1027.5 |
| 20260509141214 | 22 | 68 | 0.0 | 1.6 | 0.00 | 0.00 | 0.00 | 96 | 1027.3 |
| 20260509140709 | 22 | 59 | 1.6 | 1.6 | 0.00 | 0.00 | 0.00 | 96 | 1027.2 |
| 20260509140207 | 22 | 50 | 0.0 | 0.0 | 0.00 | 0.00 | 0.00 | 96 | 1027.0 |
| 20260509135705 | 22 | 54 | 0.0 | 0.0 | 0.00 | 0.00 | 0.00 | 96 | 1026.6 |
| 20260509135203 | 22 | 56 | 1.6 | 3.2 | 0.00 | 0.00 | 0.00 | 96 | 1026.7 |
| 20260509134658 | 22 | 67 | 0.0 | 0.0 | 0.00 | 0.00 | 0.00 | 96 | 1026.6 |
| 20260509134156 | 22 | 48 | 1.6 | 3.2 | 0.00 | 0.00 | 0.00 | 96 | 1026.6 |
| 20260509133653 | 22 | 53 | 1.6 | 3.2 | 0.00 | 0.00 | 0.00 | 96 | 1026.7 |
| 20260509133150 | 22 | 57 | 0.0 | 1.6 | 0.00 | 0.00 | 0.00 | 96 | 1026.8 |
| 20260509132649 | 22 | 45 | 0.0 | 1.6 | 0.00 | 0.00 | 0.00 | 96 | 1026.9 |
| 20260509132147 | 22 | 50 | 0.0 | 0.0 | 0.00 | 0.00 | 0.00 | 96 | 1026.8 |
| 20260509131643 | 22 | 51 | 0.0 | 1.6 | 0.00 | 0.00 | 0.00 | 96 | 1026.6 |
| 20260509131140 | 22 | 58 | 1.6 | 1.6 | 0.00 | 0.00 | 0.00 | 96 | 1026.5 |
| 20260509130635 | 22 | 55 | 1.6 | 1.6 | 0.00 | 0.00 | 0.00 | 96 | 1026.3 |
| 20260509130132 | 22 | 103 | 0.0 | 3.2 | 0.00 | 0.00 | 0.00 | 96 | 1026.6 |
| 20260509125629 | 22 | 59 | 1.6 | 1.6 | 0.00 | 0.00 | 0.00 | 96 | 1026.4 |
| 20260509125125 | 22 | 71 | 0.0 | 0.0 | 0.00 | 0.00 | 0.00 | 96 | 1026.6 |
| 20260509124622 | 22 | 71 | 0.0 | 1.6 | 0.00 | 0.00 | 0.00 | 96 | 1026.8 |
| 20260509124119 | 22 | 68 | 0.0 | 1.6 | 0.00 | 0.00 | 0.00 | 96 | 1026.7 |
| 20260509123617 | 22 | 81 | 3.2 | 3.2 | 0.00 | 0.00 | 0.00 | 97 | 1026.7 |
| 20260509123113 | 22 | 65 | 0.0 | 0.0 | 0.00 | 0.00 | 0.00 | 96 | 1026.7 |
| 20260509122609 | 22 | 72 | 0.0 | 0.0 | 0.00 | 0.00 | 0.00 | 96 | 1026.8 |
| 20260509122107 | 22 | 49 | 0.0 | 1.6 | 0.00 | 0.00 | 0.00 | 96 | 1026.9 |
| 20260509121603 | 22 | 58 | 0.0 | 3.2 | 0.00 | 0.00 | 0.00 | 96 | 1026.9 |
| 20260509121101 | 22 | 56 | 1.6 | 1.6 | 0.00 | 0.00 | 0.00 | 96 | 1026.9 |
| 20260509120559 | 22 | 67 | 0.0 | 1.6 | 0.00 | 0.00 | 0.00 | 96 | 1027.1 |
| 20260509120057 | 22 | 37 | 0.0 | 1.6 | 0.00 | 0.00 | 0.00 | 96 | 1027.0 |
| 20260509115553 | 22 | 35 | 1.6 | 3.2 | 0.00 | 0.00 | 0.00 | 96 | 1027.1 |
| 20260509115051 | 22 | 56 | 0.0 | 4.8 | 0.00 | 0.00 | 0.00 | 96 | 1027.3 |
| 20260509114549 | 22 | 40 | 1.6 | 1.6 | 0.00 | 0.00 | 0.00 | 96 | 1027.2 |
| 20260509114048 | 22 | 75 | 0.0 | 3.2 | 0.00 | 0.00 | 0.00 | 96 | 1027.1 |
| 20260509113546 | 22 | 46 | 1.6 | 3.2 | 0.00 | 0.00 | 0.00 | 96 | 1026.9 |
| 20260509113043 | 22 | 24 | 1.6 | 4.8 | 0.00 | 0.00 | 0.00 | 96 | 1026.8 |
| 20260509112539 | 22 | 39 | 1.6 | 3.2 | 0.00 | 0.00 | 0.00 | 96 | 1026.8 |
| 20260509112036 | 22 | 14 | 1.6 | 3.2 | 0.00 | 0.00 | 0.00 | 96 | 1026.7 |
| 20260509111534 | 22 | 47 | 1.6 | 3.2 | 0.00 | 0.00 | 0.00 | 96 | 1026.4 |
| 20260509111031 | 22 | 46 | 1.6 | 1.6 | 0.00 | 0.00 | 0.00 | 96 | 1026.0 |
| 20260509110527 | 22 | 52 | 0.0 | 1.6 | 0.00 | 0.00 | 0.00 | 96 | 1026.2 |
| 20260509110025 | 22 | 68 | 0.0 | 1.6 | 0.00 | 0.00 | 0.00 | 96 | 1026.0 |
| 20260509105523 | 22 | 66 | 0.0 | 3.2 | 0.00 | 0.00 | 0.00 | 96 | 1025.9 |
| 20260509105020 | 22 | 40 | 1.6 | 1.6 | 0.00 | 0.00 | 0.00 | 96 | 1025.9 |
| 20260509104517 | 22 | 29 | 0.0 | 1.6 | 0.00 | 0.00 | 0.00 | 96 | 1026.1 |
| 20260509104014 | 22 | 55 | 0.0 | 0.0 | 0.00 | 0.00 | 0.00 | 96 | 1026.1 |
| 20260509103512 | 22 | 70 | 0.0 | 0.0 | 0.00 | 0.00 | 0.00 | 96 | 1026.3 |
| 20260509103010 | 22 | 40 | 3.2 | 4.8 | 0.00 | 0.00 | 0.00 | 96 | 1026.5 |
| 20260509102507 | 22 | 63 | 0.0 | 1.6 | 0.00 | 0.00 | 0.00 | 96 | 1026.5 |
| 20260509102003 | 22 | 64 | 0.0 | 1.6 | 0.00 | 0.00 | 0.00 | 96 | 1026.6 |
| 20260509101459 | 22 | 62 | 0.0 | 1.6 | 0.00 | 0.00 | 0.00 | 96 | 1026.2 |
| 20260509100957 | 22 | 62 | 1.6 | 3.2 | 0.00 | 0.00 | 0.00 | 96 | 1026.3 |
| 20260509100454 | 22 | 58 | 0.0 | 1.6 | 0.00 | 0.00 | 0.00 | 96 | 1026.2 |
| 20260509095950 | 22 | 50 | 3.2 | 4.8 | 0.00 | 0.00 | 0.00 | 95 | 1026.0 |
| 20260509095447 | 22 | 69 | 0.0 | 1.6 | 0.00 | 0.00 | 0.00 | 95 | 1026.2 |